1500562800.16,14863,23.94,74268.3,15.89,8.05,7.15,0,*4E
1500562801.38,14864,23.94,74268.3,15.89,7.91,7.05,0,*4A
1500562802.61,14865,23.94,74268.3,15.89,8.23,7.27,0,*4D
1500562803.82,14866,23.94,74268.8,15.91,8.15,7.27,0,*42
1500562805.04,14867,23.94,74266.3,15.89,8.33,7.37,0,*4F
1500562806.27,14868,23.94,74268.5,15.89,8.33,7.45,0,*45
1500562807.49,14869,23.94,74264.5,15.89,8.37,7.37,0,*45
1500562808.72,14870,23.94,74266.5,15.89,8.47,7.45,0,*4F
1500562809.94,14871,23.94,74266.3,15.89,8.37,7.45,0,*49
1500562811.17,14872,23.94,74270.5,15.89,8.59,7.55,0,*43
1500562812.4,14873,23.94,74270.0,15.89,8.61,7.61,0,*4E
1500562813.62,14874,23.94,74270.5,15.89,8.69,7.69,0,*49
1500562814.83,14875,23.94,74268.8,15.91,8.87,7.87,0,*41
1500562816.01,14876,23.94,74270.0,15.91,9.03,8.05,0,*4A
1500562817.21,14877,23.94,74266.8,15.91,8.83,7.83,0,*43
1500562818.41,14878,23.94,74270.8,15.93,8.19,7.09,0,*4F
1500562819.61,14879,23.94,74266.5,15.91,8.51,7.51,0,*4D
1500562820.83,14880,23.94,74264.8,15.89,8.83,7.91,0,*41
1500562822.07,14881,23.94,74268.0,15.93,8.71,7.87,0,*41
1500562823.31,14882,23.94,74270.5,15.93,8.75,7.83,0,*42
1500562824.51,14883,23.94,74268.3,15.93,8.87,8.05,0,*4F
1500562825.71,14884,23.94,74266.0,15.93,8.87,7.97,0,*4C
1500562826.94,14885,23.94,74268.0,15.93,8.93,8.05,0,*4C
1500562828.14,14886,23.94,74268.0,15.93,9.07,8.19,0,*4E
1500562829.34,14887,23.94,74264.5,15.95,8.89,8.01,0,*47
1500562830.59,14888,23.94,74268.0,15.97,9.11,8.29,0,*40
1500562831.81,14889,23.94,74266.8,15.97,9.11,8.23,0,*4B
1500562833.06,14890,23.94,74270.0,15.97,9.15,8.33,0,*46
1500562834.29,14891,23.94,74268.8,15.99,9.19,8.37,0,*41
1500562835.52,14892,23.94,74264.8,15.99,9.15,8.33,0,*4A
1500562836.77,14893,23.94,74270.5,16.01,9.19,8.41,0,*40
1500562837.97,14894,23.94,74268.0,16.01,8.87,8.19,0,*4C
1500562839.22,14895,23.94,74264.5,16.01,8.55,7.83,0,*4E
1500562840.43,14896,23.94,74268.5,16.01,8.87,8.09,0,*4F
1500562841.63,14897,23.94,74264.8,16.01,8.83,8.15,0,*47
1500562842.85,14898,23.94,74268.0,16.01,8.75,8.09,0,*4C
1500562844.07,14899,23.94,74266.5,16.01,8.71,7.97,0,*41
1500562845.24,14900,23.94,74264.8,16.03,8.65,8.05,0,*43
1500562846.42,14901,23.94,74270.5,16.03,8.83,8.09,0,*46
1500562847.67,14902,23.94,74268.0,16.05,8.55,7.87,0,*41
1500562848.84,14903,23.94,74266.5,16.03,8.61,7.97,0,*40
1500562850.04,14904,23.94,74264.5,16.03,8.65,7.95,0,*41
1500562851.21,14905,23.94,74264.8,16.03,8.83,8.19,0,*43
1500562852.42,14906,23.94,74270.5,16.05,8.87,8.23,0,*4B
1500562853.67,14907,23.94,74268.0,16.05,9.01,8.33,0,*44
1500562854.92,14908,23.94,74266.3,16.05,8.75,8.13,0,*4B
1500562856.13,14909,23.94,74270.3,16.05,8.87,8.23,0,*44
1500562857.33,14910,23.94,74270.5,16.07,8.79,8.13,0,*4C
1500562858.56,14911,23.94,74266.0,16.07,8.93,8.33,0,*4B
1500562859.78,14912,23.94,74266.0,16.11,8.93,8.29,0,*44
1500562860.98,14913,23.94,74268.3,16.11,8.87,8.29,0,*40
1500562862.19,14914,23.94,74266.3,16.11,8.71,8.19,0,*4D
1500562863.39,14915,23.94,74268.8,16.11,8.71,8.09,0,*4D
1500562864.59,14916,23.94,74264.8,16.13,8.61,7.97,0,*45
1500562865.8,14917,23.94,74268.0,16.11,8.37,7.79,0,*45
1500562867.03,14918,23.94,74268.3,16.11,8.59,7.95,0,*40
1500562868.23,14919,23.94,74268.3,16.11,8.71,8.19,0,*40
1500562869.47,14920,23.94,74266.5,16.13,8.75,8.27,0,*41
1500562870.7,14921,23.94,74266.3,16.11,8.93,8.41,0,*4A
1500562871.94,14922,23.94,74268.0,16.13,8.87,8.41,0,*4E
1500562873.18,14923,23.94,74264.8,16.15,8.97,8.51,0,*49
1500562874.44,14924,23.94,74266.5,16.17,8.89,8.51,0,*43
1500562875.67,14925,23.94,74264.8,16.17,8.75,8.23,0,*44
1500562876.89,14926,23.94,74266.5,16.15,8.19,7.65,0,*42
1500562878.15,14927,23.94,74268.0,16.17,8.33,7.77,0,*4A
1500562879.39,14928,23.94,74266.5,16.15,8.29,7.77,0,*4C
1500562880.63,14929,23.94,74264.3,16.15,8.41,7.91,0,*4B
1500562881.89,14930,23.94,74270.0,16.17,8.33,7.83,0,*47
1500562883.13,14931,23.94,74266.0,16.17,8.23,7.77,0,*4C
1500562884.31,14932,23.94,74264.5,16.15,7.97,7.41,0,*48
1500562885.55,14933,23.94,74260.5,16.15,7.73,7.23,0,*47
1500562886.78,14934,23.94,74266.3,16.15,8.33,7.91,0,*42
1500562887.99,14935,23.94,74266.3,16.15,8.61,8.13,0,*41
1500562889.21,14936,23.94,74264.5,16.15,8.51,8.09,0,*4A
1500562890.41,14937,23.94,74268.3,16.15,8.61,8.29,0,*4A
1500562891.67,14938,23.94,74268.8,16.17,8.55,8.29,0,*40
1500562892.88,14939,23.94,74268.0,16.19,8.65,8.33,0,*47
1500562894.11,14940,23.94,74264.8,16.17,8.65,8.41,0,*42
1500562895.34,14941,23.94,74268.3,16.17,8.61,8.29,0,*49
1500562896.56,14942,23.94,74266.8,16.19,8.47,8.15,0,*4F
1500562897.77,14943,23.94,74270.0,16.19,8.33,8.01,0,*48
1500562898.99,14944,23.94,74266.3,16.19,8.33,8.01,0,*4F
1500562900.21,14945,23.94,74266.8,16.19,8.23,7.95,0,*4D
1500562901.46,14946,24.0,74270.3,16.19,8.33,8.13,0,*4E
1500562902.65,14947,23.94,74270.3,16.19,8.27,8.01,0,*49
1500562903.86,14948,23.94,74266.5,16.21,8.09,7.97,0,*41
1500562905.12,14949,23.94,74270.3,16.21,8.59,8.41,0,*41
1500562906.36,14950,23.94,74266.3,16.21,8.69,8.59,0,*43
1500562907.6,14951,23.94,74270.8,16.23,8.41,8.33,0,*46
1500562908.81,14952,23.94,74268.3,16.23,8.13,8.01,0,*43
1500562910.02,14953,23.94,74268.8,16.23,8.09,7.87,0,*48
1500562911.23,14954,23.94,74268.3,16.23,8.29,8.19,0,*45
1500562912.44,14955,23.94,74268.8,16.27,8.45,8.37,0,*46
1500562913.64,14956,23.94,74268.5,16.23,8.19,8.19,0,*44
1500562914.85,14957,23.94,74270.0,16.23,8.13,8.01,0,*46
1500562916.07,14958,24.0,74272.3,16.23,8.01,7.95,0,*48
1500562917.28,14959,23.94,74268.8,16.23,8.09,7.95,0,*41
1500562918.52,14960,23.94,74264.8,16.27,7.91,7.91,0,*45
1500562919.73,14961,23.94,74266.3,16.23,7.97,7.95,0,*42
1500562920.92,14962,23.94,74268.5,16.23,8.09,8.01,0,*4B
1500562922.13,14963,23.94,74268.8,16.27,8.05,8.13,0,*41
1500562923.35,14964,23.94,74268.3,16.27,7.47,7.37,0,*46
1500562924.54,14965,23.94,74268.5,16.27,7.45,7.37,0,*45
1500562925.75,14966,23.94,74266.5,16.23,8.01,8.13,0,*44
1500562926.98,14967,23.94,74270.8,16.23,7.19,7.19,0,*46
1500562928.23,14968,23.94,74270.5,16.23,7.61,7.61,0,*49
1500562929.47,14969,23.94,74270.5,16.23,7.87,7.95,0,*4B
1500562930.7,14970,23.94,74268.8,16.21,8.19,8.29,0,*41
1500562931.92,14971,23.94,74270.0,16.21,8.15,8.19,0,*4F
1500562933.15,14972,23.94,74268.3,16.21,7.79,7.83,0,*45
1500562934.41,14973,23.94,74268.5,16.21,7.91,7.91,0,*41
1500562935.65,14974,23.94,74268.3,16.21,7.59,7.61,0,*4D
1500562936.91,14975,23.94,74268.0,16.21,7.83,7.83,0,*47
1500562938.14,14976,23.94,74268.5,16.21,7.79,7.83,0,*41
1500562939.4,14977,23.94,74270.8,16.21,7.91,7.91,0,*45
1500562940.64,14978,23.94,74268.8,16.21,7.91,7.97,0,*4C
1500562941.87,14979,23.94,74268.0,16.23,8.13,8.29,0,*40
1500562943.11,14980,23.94,74268.3,16.21,8.19,8.37,0,*41
1500562944.32,14981,23.94,74264.5,16.21,7.97,8.15,0,*49
1500562945.54,14982,23.94,74268.0,16.19,7.79,7.95,0,*46
1500562946.75,14983,23.94,74268.8,16.21,8.09,8.27,0,*42
1500562948.01,14984,23.94,74268.0,16.21,8.51,8.51,0,*49
1500562949.28,14985,23.94,74268.0,16.21,8.41,8.55,0,*4D
1500562950.51,14986,23.94,74270.5,16.21,8.69,8.75,0,*46
1500562951.74,14987,23.94,74270.5,16.21,8.61,8.71,0,*4B
1500562953.0,14988,23.94,74270.5,16.21,8.51,8.51,0,*45
1500562954.25,14989,23.94,74270.5,16.21,8.75,8.75,0,*44
1500562955.47,14990,23.94,74268.3,16.21,8.87,8.87,0,*4C
1500562956.71,14991,23.94,74268.8,16.27,8.93,9.01,0,*41
1500562957.92,14992,23.94,74272.8,16.23,8.71,8.79,0,*44
1500562959.16,14993,23.94,74272.8,16.27,8.93,9.01,0,*43
1500562960.4,14994,23.94,74268.5,16.29,8.83,8.89,0,*4A
1500562961.65,14995,23.94,74270.0,16.29,8.83,8.93,0,*40
1500562962.85,14996,23.94,74270.8,16.29,8.65,8.65,0,*42
1500562964.07,14997,23.94,74270.0,16.29,8.79,8.83,0,*46
1500562965.31,14998,23.94,74270.3,16.29,9.01,9.07,0,*4A
1500562966.55,14999,23.94,74268.0,16.29,9.01,9.03,0,*4F
1500562967.79,15000,23.94,74268.8,16.31,8.93,8.97,0,*48
1500562969.05,15001,23.94,74268.8,16.33,8.51,8.55,0,*4B
1500562970.27,15002,23.94,74268.3,16.33,8.19,8.19,0,*4C
1500562971.48,15003,23.94,74268.8,16.33,8.65,8.65,0,*4D
1500562972.67,15004,23.94,74264.8,16.31,8.79,8.83,0,*4D
1500562973.86,15005,23.94,74270.5,16.31,8.79,8.87,0,*48
1500562975.12,15006,23.94,74268.3,16.33,8.75,8.75,0,*48
1500562976.33,15007,23.94,74270.3,16.33,8.65,8.65,0,*49
1500562977.53,15008,23.94,74266.5,16.33,8.61,8.65,0,*42
1500562978.79,15009,23.94,74268.5,16.33,8.97,8.97,0,*47
1500562980.06,15010,23.94,74268.0,16.33,8.97,9.01,0,*41
1500562981.31,15011,23.94,74268.5,16.37,9.15,9.15,0,*4A
1500562982.54,15012,24.0,74268.3,16.37,9.21,9.15,0,*4E
1500562983.75,15013,23.94,74268.5,16.37,9.25,9.25,0,*48
1500562984.96,15014,23.94,74268.8,16.37,9.33,9.21,0,*4C
1500562986.17,15015,23.94,74268.0,16.37,9.25,9.21,0,*4A
1500562987.38,15016,23.94,74268.5,16.39,9.25,9.15,0,*40
1500562988.57,15017,23.94,74270.5,16.39,9.33,9.21,0,*41
1500562989.8,15018,23.94,74270.0,16.41,8.93,8.79,0,*46
1500562991.04,15019,23.94,74268.0,16.41,9.07,8.93,0,*4F
1500562992.27,15020,23.94,74270.8,16.41,8.69,8.51,0,*42
1500562993.51,15021,24.0,74268.5,16.41,8.29,8.19,0,*4B
1500562994.75,15022,23.94,74268.5,16.41,8.79,8.59,0,*49
1500562995.98,15023,23.94,74270.0,16.41,8.93,8.79,0,*4E
1500562997.22,15024,23.94,74268.5,16.41,9.07,8.89,0,*4A
1500562998.46,15025,23.94,74268.5,16.41,9.19,8.83,0,*4E
1500562999.67,15026,23.94,74264.3,16.43,9.25,8.97,0,*45
1500563000.91,15027,23.94,74264.0,16.43,9.49,9.19,0,*49
1500563002.12,15028,23.94,74268.8,16.43,9.25,8.89,0,*44
1500563003.31,15029,23.94,74268.8,16.43,9.07,8.79,0,*4A
1500563004.5,15030,23.94,74270.5,16.45,9.21,8.83,0,*45
1500563005.69,15031,23.94,74270.8,16.45,9.29,8.87,0,*48
1500563006.92,15032,23.94,74268.0,16.45,8.93,8.51,0,*40
1500563008.14,15033,23.94,74268.8,16.45,8.55,8.09,0,*46
1500563009.37,15034,23.94,74270.8,16.45,8.71,8.29,0,*45
1500563010.61,15035,24.0,74268.5,16.45,8.93,8.29,0,*48
1500563011.79,15036,23.94,74266.5,16.45,8.65,8.15,0,*4D
1500563013.03,15037,23.94,74266.0,16.45,8.97,8.55,0,*45
1500563014.25,15038,23.94,74266.3,16.43,9.19,8.61,0,*4C
1500563015.48,15039,24.0,74270.0,16.45,8.97,8.41,0,*4E
1500563016.68,15040,23.94,74268.8,16.45,8.87,8.15,0,*40
1500563017.91,15041,23.94,74270.5,16.47,9.21,8.47,0,*49
1500563019.12,15042,23.94,74270.0,16.47,9.33,8.65,0,*49
1500563020.35,15043,23.94,74268.5,16.47,9.21,8.47,0,*4B
1500563021.59,15044,24.0,74270.3,16.49,9.35,8.59,0,*48
1500563022.8,15045,24.0,74268.3,16.49,9.29,8.51,0,*4C
1500563024.0,15046,23.94,74268.0,16.49,9.29,8.41,0,*4E
1500563025.21,15047,24.0,74270.3,16.49,9.15,8.15,0,*41
1500563026.41,15048,23.94,74270.8,16.49,9.03,8.01,0,*4C
1500563027.63,15049,23.94,74268.0,16.51,9.07,8.15,0,*45
1500563028.85,15050,23.94,74270.8,16.51,9.07,8.05,0,*4C
1500563030.07,15051,23.94,74268.8,16.51,9.07,8.05,0,*4D
1500563031.31,15052,24.0,74270.5,16.51,9.35,8.23,0,*4B
1500563032.57,15053,23.94,74268.8,16.51,9.39,8.47,0,*44
1500563033.78,15054,23.94,74270.5,16.53,9.33,8.33,0,*48
1500563034.99,15055,23.94,74268.3,16.53,9.19,8.05,0,*44
1500563036.2,15056,23.94,74270.5,16.53,9.39,8.27,0,*45
1500563037.38,15057,24.0,74274.3,16.53,9.75,8.61,0,*4E
1500563038.59,15058,23.94,74270.3,16.53,9.53,8.27,0,*47
1500563039.83,15059,23.94,74268.3,16.59,9.35,8.09,0,*40
1500563041.06,15060,23.94,74268.0,16.59,9.21,7.87,0,*46
1500563042.32,15061,24.0,74270.8,16.59,9.15,7.87,0,*40
1500563043.55,15062,23.94,74270.3,16.59,9.25,7.87,0,*40
1500563044.77,15063,23.94,74270.0,16.59,9.25,7.79,0,*40
1500563046.0,15064,23.94,74270.0,16.61,9.11,7.69,0,*4A
1500563047.26,15065,23.94,74270.3,16.63,9.39,7.95,0,*40
1500563048.5,15066,24.0,74274.8,16.63,9.35,7.79,0,*4D
1500563049.7,15067,23.94,74268.0,16.61,9.47,7.91,0,*4D
1500563050.91,15068,24.0,74268.5,16.61,9.25,7.65,0,*4D
1500563052.14,15069,24.0,74270.8,16.63,9.11,7.37,0,*4E
1500563053.39,15070,23.94,74268.3,16.63,8.51,6.91,0,*4E
1500563054.62,15071,24.0,74268.8,16.63,9.11,7.45,0,*42
1500563055.82,15072,24.0,74272.3,16.63,8.79,7.05,0,*4A
1500563057.02,15073,24.0,74270.3,16.63,8.61,6.93,0,*4C
1500563058.25,15074,23.94,74270.0,16.63,8.51,6.79,0,*4C
1500563059.47,15075,24.0,74270.0,16.63,8.71,7.05,0,*45
1500563060.72,15076,24.0,74268.5,16.63,8.93,7.11,0,*4F
1500563061.97,15077,24.0,74268.5,16.63,9.11,7.15,0,*41
1500563063.18,15078,23.94,74266.5,16.65,9.07,7.19,0,*43
1500563064.36,15079,24.0,74270.3,16.65,9.29,7.37,0,*42
1500563065.55,15080,24.0,74268.8,16.65,9.43,7.51,0,*48
1500563066.74,15081,23.94,74268.3,16.65,9.43,7.51,0,*49
1500563067.97,15082,23.94,74264.3,16.67,9.53,7.55,0,*4D
1500563069.21,15083,24.0,74270.8,16.67,8.87,6.87,0,*4A
1500563070.45,15084,24.0,74270.0,16.67,8.97,6.93,0,*49
1500563071.68,15085,24.0,74270.8,16.67,8.75,6.83,0,*45
1500563072.94,15086,24.0,74268.8,16.67,8.47,6.43,0,*4B
1500563074.16,15087,23.94,74270.0,16.67,8.65,6.53,0,*4B
1500563075.36,15088,24.0,74274.5,16.69,8.69,6.57,0,*42
1500563076.56,15089,24.0,74268.5,16.69,8.89,6.79,0,*41
1500563077.79,15090,23.94,74264.3,16.67,9.21,7.11,0,*4B
1500563079.02,15091,24.0,74268.5,16.69,9.01,6.91,0,*4F
1500563080.23,15092,23.94,74268.0,16.69,8.93,6.75,0,*4C
1500563081.46,15093,23.94,74268.0,16.71,9.01,6.75,0,*4E
1500563082.69,15094,24.0,74268.3,16.71,9.01,6.83,0,*40
1500563083.9,15095,24.0,74270.8,16.71,9.03,6.79,0,*46
1500563085.16,15096,24.0,74268.3,16.71,9.11,6.87,0,*47
1500563086.39,15097,23.94,74268.3,16.73,9.15,6.91,0,*47
1500563087.56,15098,23.94,74266.0,16.73,9.25,7.05,0,*47
1500563088.79,15099,24.0,74270.3,16.73,8.71,6.51,0,*46
1500563090.02,15100,23.94,74266.5,16.75,9.15,7.01,0,*46
1500563091.25,15101,24.0,74270.3,16.75,9.53,7.37,0,*40
1500563092.48,15102,24.0,74268.3,16.75,9.33,7.15,0,*45
1500563093.7,15103,24.0,74270.5,16.77,9.47,7.29,0,*4A
1500563094.9,15104,24.0,74268.3,16.77,9.67,7.45,0,*45
1500563096.12,15105,23.94,74264.3,16.81,10.17,8.05,0,*79
1500563097.33,15106,24.0,74268.3,16.85,10.47,8.27,0,*7B
1500563098.57,15107,24.0,74266.8,16.87,10.61,8.41,0,*7C
1500563099.81,15108,24.0,74268.5,16.89,10.19,8.01,0,*76
1500563101.01,15109,24.0,74268.3,16.91,9.99,7.87,0,*4F
1500563102.23,15110,24.0,74270.8,16.91,10.37,8.19,0,*73
1500563103.46,15111,24.0,74268.8,16.93,9.91,7.69,0,*4C
1500563104.69,15112,24.0,74268.0,16.95,9.49,7.27,0,*46
1500563105.95,15113,24.0,74270.8,16.97,9.39,7.19,0,*4F
1500563107.22,15114,24.0,74268.5,16.97,9.89,7.61,0,*4C
1500563108.44,15115,24.0,74270.8,16.97,9.53,7.45,0,*4C
1500563109.69,15116,24.0,74268.5,16.99,9.85,7.69,0,*44
1500563110.89,15117,24.0,74268.0,17.05,9.63,7.59,0,*4A
1500563112.15,15118,23.94,74268.3,17.05,9.85,7.61,0,*46
1500563113.38,15119,23.94,74270.0,17.07,9.77,7.65,0,*4C
1500563114.55,15120,24.0,74268.3,17.07,9.29,7.05,0,*4B
1500563115.77,15121,24.0,74268.0,17.09,8.89,6.73,0,*4F
1500563117.01,15122,24.0,74270.8,17.11,9.81,7.59,0,*45
1500563118.25,15123,24.0,74270.3,17.11,9.43,7.23,0,*47
1500563119.48,15124,24.0,74270.0,17.11,8.79,6.53,0,*4E
1500563120.72,15125,24.0,74268.0,17.11,9.35,7.29,0,*4A
1500563121.92,15126,24.0,74270.8,17.13,9.95,7.77,0,*4A
1500563123.17,15127,24.0,74268.3,17.15,9.49,7.29,0,*47
1500563124.39,15128,24.0,74274.0,17.19,9.25,7.23,0,*44
1500563125.63,15129,24.0,74270.3,17.17,9.77,7.77,0,*4D
1500563126.82,15130,24.0,74274.0,17.21,10.17,8.05,0,*74
1500563128.04,15131,24.0,74272.3,17.23,9.95,7.91,0,*47
1500563129.27,15132,23.94,74266.5,17.23,9.91,7.91,0,*40
1500563130.48,15133,24.0,74268.3,17.29,10.23,8.19,0,*75
1500563131.71,15134,24.0,74270.5,17.33,10.27,8.37,0,*71
1500563132.95,15135,24.0,74270.8,17.35,10.93,8.97,0,*73
1500563134.14,15136,24.0,74270.5,17.37,10.33,8.23,0,*77
1500563135.37,15137,24.0,74270.8,17.39,9.21,7.19,0,*45
1500563136.58,15138,24.0,74270.3,17.41,9.39,7.37,0,*40
1500563137.83,15139,24.0,74270.5,17.43,9.35,7.27,0,*4E
1500563139.03,15140,24.0,74270.3,17.41,8.61,6.53,0,*40
1500563140.26,15141,24.0,74270.0,17.43,8.59,6.29,0,*45
1500563141.47,15142,23.94,74270.8,17.45,8.27,6.13,0,*40
1500563142.68,15143,24.0,74272.5,17.43,8.15,5.99,0,*47
1500563143.91,15144,24.0,74272.3,17.45,7.87,5.77,0,*42
1500563145.14,15145,24.0,74268.8,17.43,7.77,5.49,0,*47
1500563146.4,15146,24.0,74272.3,17.43,7.27,5.27,0,*49
1500563147.64,15147,24.0,74270.0,17.43,8.55,6.29,0,*4F
1500563148.87,15148,24.0,74270.8,17.43,8.55,6.29,0,*40
1500563150.08,15149,24.0,74270.3,17.45,8.51,6.33,0,*48
1500563151.3,15150,24.0,74268.5,17.45,8.75,6.61,0,*41
1500563152.51,15151,24.0,74272.3,17.49,9.29,7.19,0,*4A
1500563153.68,15152,24.0,74270.3,17.49,9.63,7.45,0,*4E
1500563154.87,15153,24.0,74268.5,17.53,10.17,8.05,0,*74
1500563156.11,15154,23.94,74264.3,17.55,10.41,8.27,0,*76
1500563157.29,15155,23.94,74268.3,17.57,10.85,8.65,0,*7B
1500563158.55,15156,24.0,74272.5,17.59,10.75,8.71,0,*7C
1500563159.78,15157,24.0,74270.8,17.63,10.47,8.29,0,*78
1500563161.0,15158,24.0,74270.3,17.65,10.27,8.15,0,*78
1500563162.23,15159,24.0,74268.8,17.67,10.31,8.19,0,*70
1500563163.47,15160,24.0,74268.5,17.73,10.19,8.09,0,*74
1500563164.74,15161,24.0,74268.5,17.73,10.31,8.13,0,*74
1500563165.99,15162,24.0,74270.8,17.77,10.09,7.95,0,*79
1500563167.2,15163,24.0,74274.8,17.81,9.99,7.79,0,*42
1500563168.43,15164,24.0,74270.8,17.79,9.77,7.65,0,*4F
1500563169.67,15165,24.0,74270.8,17.81,10.31,8.23,0,*7E
1500563170.88,15166,24.0,74270.8,17.85,10.55,8.45,0,*7B
1500563172.11,15167,24.0,74268.5,17.85,10.47,8.29,0,*73
1500563173.33,15168,24.0,74272.5,17.89,10.43,8.29,0,*74
1500563174.54,15169,24.0,74270.0,17.91,10.51,8.37,0,*70
1500563175.72,15170,24.0,74272.8,17.95,10.43,8.27,0,*7E
1500563176.93,15171,24.0,74270.8,17.99,10.31,8.09,0,*7A
1500563178.1,15172,24.0,74274.0,17.99,10.89,8.69,0,*7C
1500563179.34,15173,24.0,74270.8,18.03,11.03,8.89,0,*7C
1500563180.59,15174,24.0,74268.3,18.07,11.37,9.29,0,*73
1500563181.81,15175,24.0,74268.0,18.11,11.55,9.47,0,*79
1500563183.06,15176,24.0,74268.3,18.13,11.57,9.49,0,*74
1500563184.29,15177,24.0,74268.5,18.19,11.55,9.47,0,*73
1500563185.55,15178,24.0,74268.3,18.23,11.45,9.39,0,*7D
1500563186.79,15179,24.0,74268.3,18.27,11.31,9.21,0,*72
1500563188.03,15180,24.0,74266.5,18.31,11.55,9.35,0,*74
1500563189.25,15181,24.0,74272.3,18.33,11.67,9.47,0,*73
1500563190.49,15182,24.0,74272.0,18.41,11.95,9.67,0,*7A
1500563191.72,15183,24.0,74268.5,18.45,11.81,9.57,0,*79
1500563192.92,15184,24.0,74270.5,18.47,11.81,9.61,0,*79
1500563194.13,15185,24.0,74272.0,18.51,11.81,9.61,0,*7F
1500563195.3,15186,24.0,74270.3,18.55,11.65,9.29,0,*7E
1500563196.52,15187,24.0,74270.3,18.55,11.85,9.49,0,*77
1500563197.77,15188,24.0,74270.0,18.63,12.09,9.81,0,*7E
1500563199.0,15189,24.0,74268.5,18.65,12.19,9.89,0,*70
1500563200.22,15190,24.0,74270.5,18.69,11.61,9.29,0,*72
1500563201.46,15191,24.0,74272.0,18.73,11.67,9.15,0,*71
1500563202.66,15192,24.0,74268.5,18.77,11.99,9.43,0,*74
1500563203.87,15193,24.0,74270.0,18.79,11.93,9.47,0,*75
1500563205.11,15194,24.0,74272.3,18.81,11.75,9.35,0,*78
1500563206.33,15195,24.0,74272.5,18.87,11.89,9.43,0,*7D
1500563207.58,15196,24.0,74270.8,18.89,11.61,9.15,0,*75
1500563208.79,15197,24.0,74268.0,18.93,11.95,9.43,0,*77
1500563210.02,15198,24.0,74270.5,18.97,11.71,9.15,0,*75
1500563211.28,15199,24.0,74268.0,18.99,11.71,9.11,0,*7E
1500563212.55,15200,24.0,74270.0,19.01,11.57,8.97,0,*76
1500563213.76,15201,24.0,74270.3,19.03,11.79,9.25,0,*71
1500563214.95,15202,24.0,74268.3,19.11,12.23,9.75,0,*78
1500563216.17,15203,24.0,74270.8,19.13,12.27,9.71,0,*7B
1500563217.38,15204,24.0,74270.3,19.15,12.29,9.75,0,*70
1500563218.59,15205,24.0,74268.3,19.21,12.27,9.67,0,*7B
1500563219.77,15206,24.0,74268.0,19.23,11.85,9.25,0,*77
1500563221.01,15207,24.0,74266.5,19.25,11.67,9.03,0,*78
1500563222.19,15208,24.0,74268.3,19.31,11.85,9.21,0,*7E
1500563223.41,15209,24.0,74268.3,19.33,12.05,9.33,0,*75
1500563224.63,15210,24.0,74266.3,19.35,11.47,8.79,0,*71
1500563225.89,15211,24.0,74266.5,19.39,11.71,8.97,0,*79
1500563227.15,15212,24.0,74266.8,19.39,11.23,8.37,0,*77
1500563228.36,15213,24.0,74262.8,19.41,10.55,7.65,0,*71
1500563229.57,15214,24.0,74262.3,19.43,10.55,7.59,0,*7B
1500563230.78,15215,24.0,74264.5,19.45,10.93,8.13,0,*77
1500563232.0,15216,24.0,74266.3,19.45,11.21,8.33,0,*7E
1500563233.22,15217,24.0,74262.5,19.47,10.17,7.29,0,*7D
1500563234.41,15218,24.0,74266.5,19.49,10.85,8.01,0,*72
1500563235.62,15219,24.0,74264.3,19.55,10.69,7.79,0,*7C
1500563236.8,15220,24.0,74264.3,19.57,10.89,8.01,0,*7A
1500563237.99,15221,24.0,74264.8,19.57,11.55,8.61,0,*7D
1500563239.21,15222,24.0,74264.8,19.59,11.13,8.19,0,*7D
1500563240.45,15223,24.0,74260.0,19.59,11.55,8.47,0,*75
1500563241.66,15224,24.0,74262.5,19.61,11.51,8.55,0,*7E
1500563242.91,15225,24.0,74262.0,19.65,11.79,8.79,0,*7F
1500563244.14,15226,24.0,74262.5,19.69,11.27,8.23,0,*74
1500563245.41,15227,24.0,74260.8,19.69,11.03,7.95,0,*71
1500563246.64,15228,24.0,74260.8,19.75,10.99,7.83,0,*76
1500563247.87,15229,24.0,74260.8,19.75,11.03,7.83,0,*75
1500563249.09,15230,24.0,74262.0,19.75,9.61,6.13,0,*48
1500563250.33,15231,24.0,74260.0,19.77,8.59,5.15,0,*44
1500563251.54,15232,24.0,74258.3,19.71,9.25,5.85,0,*42
1500563252.74,15233,24.0,74260.8,19.71,9.35,5.95,0,*43
1500563253.95,15234,24.0,74260.8,19.71,9.53,6.03,0,*48
1500563255.16,15235,24.0,74260.3,19.71,9.21,5.73,0,*48
1500563256.37,15236,24.0,74262.5,19.71,9.11,5.63,0,*49
1500563257.57,15237,24.0,74260.0,19.71,8.89,5.37,0,*49
1500563258.81,15238,24.0,74262.5,19.69,8.45,5.01,0,*4A
1500563260.02,15239,24.0,74260.8,19.67,8.37,4.81,0,*49
1500563261.23,15240,24.0,74260.8,19.65,8.69,5.19,0,*4E
1500563262.49,15241,24.0,74260.8,19.65,8.97,5.51,0,*42
1500563263.73,15242,24.0,74264.0,19.65,9.75,6.35,0,*4D
1500563264.96,15243,24.0,74258.0,19.65,9.75,6.35,0,*4C
1500563266.14,15244,24.0,74264.3,19.67,8.01,4.49,0,*42
1500563267.38,15245,24.0,74264.0,19.65,7.47,3.89,0,*47
1500563268.61,15246,24.0,74264.3,19.63,7.87,4.41,0,*4D
1500563269.85,15247,24.0,74264.8,19.61,8.51,5.01,0,*4F
1500563271.07,15248,24.0,74264.5,19.59,8.29,4.81,0,*4D
1500563272.27,15249,24.0,74262.8,19.61,8.33,4.89,0,*44
1500563273.47,15250,24.0,74266.5,19.59,8.09,4.53,0,*49
1500563274.71,15251,24.0,74268.0,19.59,8.27,4.75,0,*40
1500563275.94,15252,24.0,74266.0,19.59,8.47,5.15,0,*42
1500563277.17,15253,24.0,74264.5,19.59,8.09,4.75,0,*4E
1500563278.41,15254,24.0,74266.8,19.59,8.47,5.15,0,*44
1500563279.59,15255,24.0,74264.5,19.57,8.27,4.85,0,*45
1500563280.8,15256,24.0,74266.3,19.57,8.09,4.71,0,*41
1500563282.06,15257,24.0,74266.8,19.55,8.33,4.93,0,*47
1500563283.27,15258,24.0,74266.8,19.55,7.09,3.59,0,*4F
1500563284.48,15259,24.0,74270.0,19.53,6.33,2.77,0,*4D
1500563285.72,15260,24.0,74270.3,19.49,5.93,2.43,0,*42
1500563286.95,15261,24.0,74266.5,19.47,7.05,3.67,0,*47
1500563288.21,15262,24.0,74266.5,19.47,7.23,4.01,0,*47
1500563289.42,15263,24.0,74266.5,19.45,8.79,5.51,0,*40
1500563290.68,15264,24.0,74266.8,19.47,9.53,6.47,0,*48
1500563291.91,15265,24.0,74268.0,19.49,8.97,5.93,0,*44
1500563293.14,15266,24.0,74266.0,19.53,9.35,6.39,0,*46
1500563294.37,15267,24.0,74270.0,19.53,9.89,6.87,0,*45
1500563295.57,15268,24.0,74268.8,19.57,9.29,6.43,0,*4C
1500563296.81,15269,24.0,74264.5,19.59,9.61,6.57,0,*4A
1500563298.0,15270,24.0,74268.0,19.61,9.29,6.39,0,*4D
1500563299.22,15271,24.0,74268.8,19.61,9.53,6.61,0,*4C
1500563300.49,15272,24.0,74272.0,19.65,9.39,6.47,0,*43
1500563301.7,15273,24.0,74266.8,19.65,9.29,6.33,0,*40
1500563302.9,15274,24.0,74268.3,19.67,8.69,5.73,0,*47
1500563304.13,15275,24.0,74268.0,19.69,8.51,5.59,0,*4B
1500563305.35,15276,24.0,74270.0,19.69,8.09,5.11,0,*49
1500563306.57,15277,24.0,74270.5,19.69,8.15,5.19,0,*4D
1500563307.82,15278,24.0,74266.0,19.69,7.65,4.67,0,*42
1500563309.08,15279,24.0,74268.0,19.69,7.65,4.75,0,*40
1500563310.35,15280,24.0,74270.3,19.69,7.83,4.97,0,*42
1500563311.58,15281,24.0,74268.3,19.67,7.73,4.97,0,*42
1500563312.79,15282,24.0,74268.3,19.67,7.45,4.59,0,*46
1500563314.0,15283,24.0,74270.8,19.67,6.21,3.41,0,*4A
1500563315.23,15284,24.0,74268.3,19.65,5.29,2.47,0,*43
1500563316.46,15285,24.0,74270.3,19.63,5.71,2.81,0,*43
1500563317.68,15286,24.0,74268.3,19.63,5.95,3.19,0,*4A
1500563318.92,15287,24.0,74268.5,19.59,5.63,2.81,0,*4B
1500563320.14,15288,24.0,74268.5,19.57,5.89,3.23,0,*47
1500563321.33,15289,24.0,74270.5,19.57,6.03,3.29,0,*4D
1500563322.56,15290,24.0,74268.8,19.55,6.11,3.37,0,*4B
1500563323.77,15291,24.0,74270.8,19.53,5.95,3.37,0,*43
1500563325.01,15292,24.0,74270.3,19.49,5.81,3.15,0,*4E
1500563326.22,15293,24.0,74266.5,19.49,5.93,3.25,0,*4F